Regional Weather Roundup
Issued by NWS Upton, NY

Current Version | Previous Version | Text Only | Print | Product List | Glossary On
Versions: 1 2 3 4 5 6 7 8 9 10 11 12 13 14 15 16 17 18 19 20 21 22 23 24 25 26 27 28 29 30 31 32 33 34 35 36 37 38 39 40 41 42 43 44 45 46 47 48 49
000
ASUS41 KOKX 021104
RWROKX

REGIONAL WEATHER ROUNDUP
NATIONAL WEATHER SERVICE NEW YORK NY
700 AM EDT SUN AUG 02 2015

NOTE: "FAIR" INDICATES FEW OR NO CLOUDS BELOW 12,000 FEET WITH NO
SIGNIFICANT WEATHER AND/OR OBSTRUCTIONS TO VISIBILITY.

NYZ071-072-176-178-NJZ106-104-021200-
NEW YORK CITY METRO AREA


CITY           SKY/WX    TMP DP  RH WIND       PRES   REMARKS
CENTRAL PARK   SUNNY     71  59  65 CALM      29.93R
LAGUARDIA APRT MOSUNNY   74  59  59 CALM      29.89R
KENNEDY INTL   MOSUNNY   75  57  53 CALM      29.91R
NEWARK/LIBERTY SUNNY     71  58  63 SW3       29.90R
BRNX BOT. GARD   N/A     68  57  68 E2        29.90S
TETERBORO      SUNNY     68  57  68 CALM      29.90R
$$

NYZ177-179-078>081-021200-
LONG ISLAND NEW YORK

CITY           SKY/WX    TMP DP  RH WIND       PRES   REMARKS
FARMINGDALE    SUNNY     70  60  70 NE3       29.90R
ISLIP          MOSUNNY   69  63  81 CALM      29.89R
SHIRLEY        SUNNY     64  61  90 CALM      29.91R
WESTHAMPTON    SUNNY     62  58  86 CALM      29.92R
MONTAUK POINT    N/A     69  65  86 CALM      29.91R
$$

NYZ052-065-067-021200-
HUDSON VALLEY

CITY           SKY/WX    TMP DP  RH WIND       PRES   REMARKS
WHITE PLAINS   SUNNY     68  62  81 CALM      29.90R
NEWBURGH       SUNNY     63  59  88 W6        29.92R
MONTGOMERY     SUNNY     60  58  92 S3        29.91R
POUGHKEEPSIE   SUNNY     60  56  86 CALM      29.90R
ALBANY         MOSUNNY   62  57  83 SW5       29.89R
$$

NJZ001-105-106-008-010-013-015-019>022-104-021200-
NEW JERSEY

CITY           SKY/WX    TMP DP  RH WIND       PRES   REMARKS
NEWARK/LIBERTY SUNNY     71  58  63 SW3       29.90R
TETERBORO      SUNNY     68  57  68 CALM      29.90R
CALDWELL       SUNNY     63  57  81 CALM      29.92R
MORRISTOWN     SUNNY     63  61  94 CALM      29.92R
SOMERVILLE     SUNNY     60  57  89 CALM      29.90R
SUSSEX         SUNNY     57  56  96 CALM      29.92R
ANDOVER          N/A     57  57 100 CALM      29.93R
TRENTON        SUNNY     67  60  78 NW6       29.90S
MILLVILLE      CLEAR     65  63  93 CALM      29.91R
ATLANTIC CITY  SUNNY     68  63  84 W3        29.91R
WRIGHTSTOWN    NOT AVBL
TOMS RIVER       N/A     63  57  82 CALM      29.91S
BELMAR         FAIR      66  55  68 NW3       29.91R
$$

PAZ047>061-062-071-021200-
EASTERN PENNSYLVANIA

CITY           SKY/WX    TMP DP  RH WIND       PRES   REMARKS
PHILADELPHIA   PTCLDY    72  57  59 CALM      29.91S
ALLENTOWN      SUNNY     63  58  83 W3        29.92R
SCRANTON       CLEAR     59  55  87 E7        29.93S
$$

CTZ002-004>006-009-010-012-RIZ004-006-007-MAZ004-011-015-021200-
SOUTHERN NEW ENGLAND
 IN CT

CITY           SKY/WX    TMP DP  RH WIND       PRES   REMARKS
BRADLEY INTL   SUNNY     63  58  83 S3        29.89R
HARTFORD       SUNNY     64  61  90 S5        29.90R
DANBURY        SUNNY     60  56  86 CALM      29.93R
WTRBRY/OXFORD  SUNNY     61  52  72 SW3       29.93R
BRIDGEPORT     SUNNY     69  61  75 N3        29.90R
MERIDEN        SUNNY     61  58  90 CALM      29.90R
NEW HAVEN      SUNNY     65  62  90 CALM      29.91R
CHESTER        FAIR      64  59  82 CALM      29.91R
GROTON         SUNNY     66  62  87 N3        29.89R
WILLIMANTIC    SUNNY     60  57  89 CALM      29.90R

 IN RI

CITY           SKY/WX    TMP DP  RH WIND       PRES   REMARKS
PROVIDENCE     SUNNY     65  58  78 W6        29.89R
BLOCK ISLAND     N/A     72  61  68 NW3       29.91R
WESTERLY       SUNNY     65  61  87 CALM      29.90R

 IN MA

CITY           SKY/WX    TMP DP  RH WIND       PRES   REMARKS
BOSTON         SUNNY     69  53  56 W10       29.86R
WORCESTER      SUNNY     64  52  64 W12       29.90R
WESTFIELD      SUNNY     60  57  89 CALM      29.89R
PROVINCETOWN   SUNNY     70  55  60 W8        29.87R
NANTUCKET      SUNNY     75  63  66 NW6       29.88R
$$

ANZ330-335-338-340-345-350-353-355-021200-
COASTAL MARINE OBSERVATIONS


STATION/POSITION TIME  SKY/WX   TEMP    WIND        PRES    VSBY  WAVE
                                AIR SEA DIR/SP/G                  HT/PER
                 (UTC)          (F)     (DEG/KT/KT) (MB)    (MI)  (FT/S)
NY HARB ENTRANCE 0950            73 77  300/  8/ 10 1011.6          2/ 8
4S FIRE IS       NOT AVBL
20S FIRE ISLAND  0950            76 76  350/  8/ 10 1011.5          3/ 6
GREAT SOUTH BAY  1000            71 80  320/  4/  8   N/A
23SW MTP         1050            73 73   20/  6/  8 1012.0          3/ 8
HUDSON CANYON    NOT AVBL
KINGS POINT      1000            70 70   CALM  /  1 1011.3
EXECUTION ROCKS  1000            70     170/  2/  2   N/A
CENTRAL LI SOUND NOT AVBL
EASTERN LI SOUND 1000            69 67   CALM  /  4   N/A
ROBBINS REEF     1000            72     270/  7/  7 1011.0
$$


>>>>>>>>>>>>>>>>>>>>>>>>>>>> KEY <<<<<<<<<<<<<<<<<<<<<<<<<<<
>                                                          <
>     SKY/WX - SKY CONDITION/PRESENT WEATHER               <
>     TMP    - TEMPERATURE IN FAHRENHEIT                   <
>     DP     - DEWPOINT IN FAHRENHEIT                      <
>     RH     - RELATIVE HUMIDITY IN PERCENT                <
>     WIND   - DIRECTION AND SPEED IN MPH                  <
>     PRES   - MEAN SEA LEVEL PRESSURE IN INCHES OF HG     <
>     WCI    - WIND CHILL INDEX                            <
>     VSB    - VISIBILITY IN MILES                         <
>     HX     - HEAT INDEX                                  <
>     TC     - TEMPERATURE IN CELSIUS                      <
>     VRB    - VARIABLE WIND DIRECTION                     <
>                                                          <
>>>>>>>>>>>>>>>>>>>>>>>>>>>> KEY <<<<<<<<<<<<<<<<<<<<<<<<<<<




USA.gov is the U.S. government's official web portal to all federal, state and local government web resources and services.